Torna al catalogo

COSMOS 2251 DEB

LostLEO
NORAD 35787·DEBRIS·🇷🇺 Russia

Lanciato Jun 16, 1993 da Plesetsk Cosmodrome

Loading…

Prossimi Passaggi (prossime 24 ore)

TLE

ObsoletoSource: Space-Track

Epoca: Nov 14, 2022, 21:11 UTC

1 35787U 93036ASH 22318.88279052  .00000817  00000-0  28273-3 0  9999
2 35787  74.0366 169.6349 0021663 167.1242 193.0470 14.37161868711724

Traccia COSMOS 2251 DEB in tempo reale con AllMySat

Download on the App Store